Skip Page Navigation
NASA JPL Caltech
NASA Logo - Jet Propulsion Laboratory + View the NASA Portal
+ Center for Near-Earth Object Studies
JPL Home Earth Solar System Stars & Galaxies Technology
JPL Solar System Dynamics
BODIES ORBITS EPHEMERIDES TOOLS PHYSICAL DATA DISCOVERY FAQ SITE MAP

Significant website upgrade scheduled for September 27. More details available here.

JPL Small-Body Database Browser
Search: [ help ]  
447214 (2005 TY96)
Classification: Main-belt Asteroid          SPK-ID: 2447214
Ephemeris | Orbit Diagram | Orbital Elements | Mission Design | Physical Parameters | Discovery Circumstances | Close-Approach Data ]

[ show orbit diagram ]
Orbital Elements at Epoch 2459396.5 (2021-Jul-01.0) TDB
Reference: JPL 12 (heliocentric ecliptic J2000)
 Element Value Uncertainty (1-sigma)   Units 
e .09855371397036555 1.3937e-07  
a 2.974816361818414 4.3388e-08 au
q 2.681637160981398 4.1481e-07 au
i 8.387169638800977 9.5258e-06 deg
node 220.4706067442536 6.6284e-05 deg
peri 234.8144752714486 0.00014937 deg
M 326.2737965247947 0.00012737 deg
tp 2459572.071340163087
(2021-Dec-23.57134016)
0.00066455 TDB
period 1874.082343871839
5.13
4.1e-05
1.123e-07
d
yr
n .1920940139995359 4.2025e-09 deg/d
Q 3.267995562655429 4.7664e-08 au
  Orbit Determination Parameters
   # obs. used (total)      99  
   data-arc span      5481 days (15.01 yr)  
   first obs. used      2005-10-06  
   last obs. used      2020-10-08  
   planetary ephem.      DE441  
   SB-pert. ephem.      SB441-N16  
   condition code      0  
   norm. resid. RMS      .5951  
   source      ORB  
   producer      Otto Matic  
   solution date      2021-Apr-14 15:00:57  

Additional Information
 Earth MOID = 1.70881 au 
 Jupiter MOID = 1.97978 au 
 T_jup = 3.238 
[ show covariance matrix ]

Ephemeris | Orbit Diagram | Orbital Elements | Mission Design | Physical Parameters | Discovery Circumstances | Close-Approach Data ]

Physical Parameter Table
Parameter Symbol Value Units Sigma Reference Notes
absolute magnitude H 16.7   n/a MPO357070  
diameter diameter 3.286 km 0.493 urn:nasa:pds:neowise_diameters_albedos::2.0[mainbelt] (http://adsabs.harvard.edu/abs/2011ApJ...741...68M)  
geometric albedo albedo 0.037   0.008 urn:nasa:pds:neowise_diameters_albedos::2.0[mainbelt] (http://adsabs.harvard.edu/abs/2011ApJ...741...68M)  

447214 (2005 TY96)          Discovered 2005-Oct-06 by Mt. Lemmon Survey at Mount Lemmon
Reference: Last Updated: 2015-10-28

[ hide close-approach data ]
Close-Approach Data   ...sorted by Date/Time (TDB)
Date/Time (TDB) Time Uncertainty
(days_HH:MM)
Body Nominal Distance (au) Minimum Distance (au) Maximum Distance (au) V-relative (km/s) V-infinity (km/s) JD (TDB) Time Uncertainty (minutes) Semi-major axis (km) Semi-minor axis (km) range-LOV angle (deg) N-sigma BP Orbit Ref. Reference Modified
1937-Aug-03 18:45 00:06 Jupiter 1.99528902305738 1.99528707350409 1.99529097261091 2.75646323376583 2.59789668492804 2428749.281294182 6.03474764343119 217.446937206012 59.5764637293914 80.9608587049498 765359.028668891 T 12 CATAB v2.0f-lin.ifort 2021-Apr-14 15:00:57 2021-Apr-14 15:00
1973-Nov-19 12:37 00:04 Jupiter 1.99162408426793 1.99162167359578 1.99162649493963 2.73623503553409 2.57612061937485 2442006.025491880 3.49952557370513 202.932245764538 49.9239581522955 85.1033697226331 641893.151969205 T 12 CATAB v2.0f-lin.ifort 2021-Apr-14 15:00:57 2021-Apr-14 15:00
2127-Sep-19 17:13 00:08 Jupiter 1.9839514613863 1.98394927758672 1.98395364518396 2.613637013851 2.44483623424624 2498192.217535111 7.71316160501956 293.136831035208 50.9318594094028 -86.6454761765216 565780.68739083 T 12 CATAB v2.0f-lin.ifort 2021-Apr-14 15:00:57 2021-Apr-14 15:00
2164-Jan-06 11:30 00:10 Jupiter 1.98761923378449 1.98761693895079 1.98762152861662 2.91316874653353 2.7630153057856 2511449.979378215 10.2426713573564 492.766923569291 65.4091277612877 -82.4801757232545 556938.644518574 T 12 CATAB v2.0f-lin.ifort 2021-Apr-14 15:00:57 2021-Apr-14 15:00
Ephemeris | Orbit Diagram | Orbital Elements | Mission Design | Physical Parameters | Discovery Circumstances | Close-Approach Data ]
ABOUT SSD CREDITS/AWARDS PRIVACY/COPYRIGHT GLOSSARY LINKS
FirstGov 2021-Sep-21 06:24 UT
(server date/time)  
NASA Home Page
Site Manager:   Ryan S. Park
Webmaster  Alan B. Chamberlin